Weather observations for the past three days for
Hebbronville, Jim Hogg County Airport
Imperial (Metric)
Date Time (cdt) Wind (mph) Vis. (mi.) Weather Sky Cond. Temperature (ºF) Relative Humidity Wind Chill (°F) Heat Index (°F) Pressure Precipitation (in)
Air Dwpt 6 hour altimeter (in) sea level (mb) 1 hr 3 hr 6 hr
Max. Min.
05 09:55 S 16 G 23 10.00 Fair CLR 80.1 74.1 82% 85 29.76 0.0
05 09:35 S 12 G 20 9.00 Fair CLR 79 73.9 85% 83 29.75 0.0
05 09:15 S 13 G 21 9.00 Fair CLR 77.4 73.9 89% 79 29.76 0.0
05 08:55 S 12 7.00 A Few Clouds FEW013 76.1 73.8 93% 76 29.75 0.0
05 08:35 S 12 7.00 A Few Clouds FEW013 75.9 73.8 93% 76 29.76 0.0
05 08:15 S 14 7.00 Fair CLR 75 73.6 95% 73 29.76 0.0
05 07:55 S 10 8.00 Fair CLR 74.7 73.4 96% 29.75 0.0
05 07:35 S 10 7.00 A Few Clouds FEW013 74.5 73.2 96% 29.75 0.0
05 07:15 S 10 8.00 A Few Clouds FEW013 74.3 73.4 97% 29.75 0.0
05 06:55 S 12 9.00 Partly Cloudy SCT013 74.3 73 74.3 73.2 96% 29.74 0.0
05 06:35 S 10 G 17 10.00 Partly Cloudy SCT013 74.3 73 96% 29.74 0.0
05 06:15 S 10 9.00 Partly Cloudy SCT013 74.1 72.9 96% 29.74 0.0
05 05:55 S 9 9.00 Partly Cloudy SCT013 73.9 72.7 96% 29.74 0.0
05 05:35 S 10 9.00 A Few Clouds FEW014 73.8 72.5 96% 29.73 0.0
05 05:15 S 12 9.00 Fair CLR 73.8 72.5 96% 29.73 0.0
05 04:55 S 12 10.00 Fair CLR 73.8 72.5 96% 29.74 0.0
05 04:35 S 9 9.00 Fair CLR 73.8 72.5 96% 29.74 0.0
05 04:15 S 10 9.00 A Few Clouds FEW015 73.6 72.1 95% 29.75 0.0
05 03:55 S 10 10.00 Mostly Cloudy BKN014 73.4 72.1 96% 29.76 0.0
05 03:35 S 10 9.00 Mostly Cloudy BKN013 73.2 72 96% 29.76 0.0
05 03:15 S 14 G 18 10.00 Overcast OVC014 73.2 71.8 95% 29.77 0.0
05 02:55 S 12 G 18 9.00 Overcast OVC014 73.2 71.8 95% 29.78 0.0
05 02:35 S 13 10.00 Overcast OVC014 73.2 71.4 94% 29.78 0.0
05 02:15 S 14 10.00 Overcast OVC014 73.2 71.4 94% 29.78 0.0
05 01:55 S 8 G 21 9.00 Overcast OVC015 73.2 71.1 93% 29.79 0.0
05 01:35 S 13 9.00 Overcast OVC015 73.4 70.9 92% 29.8 0.0
05 01:15 S 16 G 21 10.00 Mostly Cloudy BKN017 73.8 70.9 91% 29.81 0.0
05 00:55 S 10 G 18 10.00 Partly Cloudy SCT019 73.9 70.5 83.1 73.9 89% 29.82 0.0
05 00:35 S 15 10.00 Mostly Cloudy BKN019 74.1 70.3 88% 29.82 0.0
05 00:15 S 15 G 22 9.00 Partly Cloudy SCT019 74.3 70.5 88% 29.82 0.0
04 23:55 S 15 G 18 9.00 Partly Cloudy SCT020 74.7 70.5 87% 29.82 0.0
04 23:35 S 13 10.00 A Few Clouds FEW020 74.7 70.5 87% 29.83 0.0
04 23:15 S 10 10.00 Fair CLR 74.7 70.5 87% 29.83 0.0
04 22:55 SE 10 10.00 Fair CLR 75 70.5 86% 75 29.82 0.0
04 22:35 SE 12 9.00 Fair CLR 74.8 70.5 86% 29.82 0.0
04 22:15 SE 9 10.00 Fair CLR 75 70.5 86% 75 29.82 0.0
04 21:55 SE 10 9.00 Fair CLR 75.6 70.3 84% 76 29.82 0.0
04 21:35 SE 12 9.00 Fair CLR 76.1 70.3 82% 77 29.81 0.0
04 21:15 SE 10 9.00 Fair CLR 76.8 70.2 80% 78 29.81 0.0
04 20:55 S 12 9.00 Fair CLR 77.7 69.6 76% 80 29.79 0.0
04 20:35 SE 10 9.00 Fair CLR 78.3 69.6 75% 81 29.79 0.0
04 20:15 S 7 7.00 Fair CLR 79 69.3 72% 82 29.79 0.0
04 19:55 S 9 8.00 Fair CLR 80.1 69.1 69% 83 29.79 0.0
04 19:35 S 10 7.00 A Few Clouds FEW039 80.4 68.9 68% 83 29.79 0.0
04 19:15 S 9 8.00 A Few Clouds FEW039 81.9 68.9 65% 85 29.79 0.0
04 18:55 SE 10 8.00 Partly Cloudy SCT039 82.2 68.9 84.6 77.4 64% 86 29.8 0.0
04 18:35 S 12 9.00 Partly Cloudy SCT039 83.8 69.3 62% 88 29.81 0.0
04 18:15 S 10 7.00 A Few Clouds FEW040 83.3 69.1 62% 87 29.81 0.0
04 17:55 S 16 9.00 Fair CLR 83.3 68.7 62% 87 29.82 0.0
04 17:35 S 14 G 20 9.00 Fair CLR 83.1 68.7 62% 87 29.82 0.0
04 17:15 S 12 7.00 A Few Clouds FEW040 82.4 68.2 62% 85 29.83 0.0
04 16:35 S 12 9.00 A Few Clouds FEW370 82.6 68.4 62% 86 29.83 0.0
04 16:15 S 12 9.00 A Few Clouds FEW370 81.5 68.7 65% 85 29.84 0.0
04 15:55 S 13 9.00 A Few Clouds FEW320 82.6 68.7 63% 86 29.85 0.0
04 15:35 S 13 8.00 A Few Clouds FEW310 81.7 68.9 65% 85 29.86 0.0
04 15:15 S 10 G 20 9.00 A Few Clouds FEW270 81.3 68.9 66% 84 29.87 0.0
04 14:55 S 9 9.00 A Few Clouds FEW340 81 69.1 67% 84 29.88 0.0
04 14:35 SE 10 9.00 A Few Clouds FEW036 79.2 68.5 70% 82 29.88 0.0
04 14:15 S 12 8.00 A Few Clouds FEW320 80.1 68.4 68% 83 29.89 0.0
04 13:55 S 14 9.00 A Few Clouds FEW290 79 68 69% 81 29.9 0.0
04 13:35 S 12 G 18 9.00 A Few Clouds FEW380 79.2 68 69% 82 29.9 0.0
04 13:15 S 10 9.00 A Few Clouds FEW310 78.8 68.2 70% 81 29.91 0.0
04 12:55 S 12 9.00 A Few Clouds FEW370 77.5 67.8 78.1 60.6 72% 79 29.92 0.0
04 12:35 S 10 8.00 Fair CLR 77 67.8 73% 79 29.92 0.0
04 12:15 S 9 7.00 A Few Clouds FEW032 76.6 67.8 74% 78 29.93 0.0
04 11:55 S 13 G 18 8.00 A Few Clouds FEW031 77.2 67.5 72% 79 29.93 0.0
04 11:35 S 12 9.00 A Few Clouds FEW330 78.1 67.8 71% 80 29.93 0.0
04 11:15 S 14 9.00 A Few Clouds FEW350 76.5 67.6 74% 78 29.94 0.0
04 10:55 S 15 9.00 A Few Clouds FEW023 75.6 68 77% 77 29.94 0.0
04 10:35 S 12 G 18 9.00 Partly Cloudy SCT022 76.1 68.2 77% 77 29.95 0.0
04 10:15 S 15 G 20 8.00 A Few Clouds FEW018 73.8 68.4 83% 29.94 0.0
04 09:55 S 17 G 22 9.00 A Few Clouds FEW016 73.4 68.5 85% 29.94 0.0
04 09:35 S 15 G 21 9.00 A Few Clouds FEW016 73 68.4 85% 29.94 0.0
04 09:15 S 15 G 22 9.00 Fair CLR 71.6 67.3 86% 29.94 0.0
04 08:55 S 12 G 17 7.00 A Few Clouds FEW018 68.5 66.2 92% 29.95 0.0
04 08:35 S 6 8.00 Partly Cloudy SCT018 67.1 65.8 96% 29.95 0.0
04 08:15 S 7 8.00 Partly Cloudy SCT018 64.9 64.2 98% 29.95 0.0
04 07:55 S 6 8.00 Fair CLR 62.2 62.2 100% 29.95 0.0
04 07:35 Calm 8.00 Fair CLR 61.5 61.5 100% 29.95 0.0
04 07:15 SE 3 7.00 Fair CLR 60.8 60.8 100% 29.95 0.0
04 06:55 SE 6 8.00 Fair CLR 59.9 59.9 64.6 59.7 100% 29.94 0.0
04 06:35 SE 3 10.00 Fair CLR 60.1 60.1 100% 29.94 0.0
04 06:15 Calm 10.00 A Few Clouds FEW018 60.3 60.3 100% 29.95 0.0
04 05:55 Calm 9.00 Mostly Cloudy BKN018 59.7 59.7 100% 29.96 0.0
04 05:35 NE 3 10.00 Partly Cloudy SCT018 59.9 59.9 100% 29.96 0.0
04 05:15 Calm 9.00 A Few Clouds FEW019 60.6 60.6 100% 29.95 0.0
04 04:55 Calm 9.00 Fair CLR 59.7 59.7 100% 29.96 0.0
04 04:35 Calm 10.00 Fair CLR 60.1 60.1 100% 29.95 0.0
04 04:15 S 3 9.00 Fair CLR 60.6 60.6 100% 29.95 0.0
04 03:55 SE 3 9.00 Fair CLR 61.3 60.8 98% 29.97 0.0
04 03:35 SE 5 10.00 Fair CLR 61.3 60.4 97% 29.96 0.0
04 03:15 Calm 10.00 Fair CLR 61.5 60.3 96% 29.97 0.0
04 02:55 SE 5 10.00 Fair CLR 62.2 60.6 94% 29.98 0.0
04 02:35 SE 5 10.00 Fair CLR 62.4 60.8 94% 29.98 0.0
04 02:15 SE 5 10.00 Fair CLR 62.8 60.6 93% 30 0.0
04 01:55 SE 5 10.00 Fair CLR 63.3 60.6 91% 30.02 0.0
04 01:35 SE 5 10.00 Fair CLR 63.5 60.4 90% 30.02 0.0
04 01:15 SE 6 10.00 Fair CLR 64.2 60.3 87% 30.02 0.0
04 00:55 SE 7 10.00 Fair CLR 64.8 60.1 78.3 64.8 85% 30.02 0.0
04 00:35 SE 8 10.00 Fair CLR 64.9 59.9 84% 30.03 0.0
04 00:15 SE 7 10.00 Fair CLR 65.1 59.5 82% 30.03 0.0
03 23:55 SE 8 10.00 Fair CLR 65.5 59.2 80% 30.04 0.0
03 23:35 SE 8 10.00 Fair CLR 66 58.8 78% 30.05 0.0
03 23:15 SE 8 10.00 Fair CLR 66.9 58.6 75% 30.06 0.0
03 22:55 SE 8 10.00 Fair CLR 67.8 58.5 72% 30.06 0.0
03 22:35 SE 10 9.00 Fair CLR 68 58.3 71% 30.05 0.0
03 22:15 SE 10 10.00 Fair CLR 68.9 58.3 69% 30.05 0.0
03 21:55 SE 12 10.00 Fair CLR 69.8 58.5 67% 30.05 0.0
03 21:35 SE 13 10.00 Fair CLR 70.5 58.5 66% 30.05 0.0
03 21:15 SE 12 9.00 Fair CLR 71.2 58.5 64% 30.04 0.0
03 20:55 E 10 10.00 Fair CLR 72.3 58.1 61% 30.02 0.0
03 20:35 SE 12 9.00 Fair CLR 73 58.1 60% 30.02 0.0
03 20:15 E 13 8.00 Fair CLR 73.9 57.6 57% 30.02 0.0
03 19:55 SE 12 8.00 Fair CLR 75.2 57 53% 78 30.01 0.0
03 19:35 E 14 8.00 Fair CLR 75.9 56.3 51% 78 30.01 0.0
03 19:15 SE 13 8.00 Fair CLR 77.7 55.8 47% 79 30.01 0.0
03 18:55 SE 15 8.00 A Few Clouds FEW065 78.8 55.2 82.4 77.7 44% 79 30.02 0.0
03 18:35 E 15 8.00 Fair CLR 79.5 54.9 43% 80 30.01 0.0
03 18:15 SE 14 8.00 Fair CLR 80.8 54.5 40% 81 30.01 0.0
03 17:55 E 12 8.00 Fair CLR 80.4 52.9 39% 80 30.02 0.0
03 17:35 SE 9 8.00 Fair CLR 80.6 52.7 38% 80 30.01 0.0
03 17:15 E 9 G 18 8.00 Fair CLR 81.5 51.4 35% 81 30.02 0.0
03 16:55 S 10 9.00 A Few Clouds FEW065 81.1 51.3 35% 80 30.03 0.0
03 16:35 Vrbl 6 8.00 A Few Clouds FEW065 81 51.1 35% 80 30.05 0.0
03 16:15 SE 9 8.00 Partly Cloudy SCT065 81.1 51.8 36% 80 30.06 0.0
03 15:55 SE 10 9.00 A Few Clouds FEW065 81.1 51.3 35% 80 30.07 0.0
03 15:35 SE 9 9.00 Fair CLR 80.1 50.4 36% 80 30.07 0.0
03 15:15 E 10 9.00 Fair CLR 80.2 50.5 36% 80 30.09 0.0
03 14:55 E 8 G 16 9.00 A Few Clouds FEW065 80.1 50.7 36% 80 30.1 0.0
03 14:35 E 6 G 18 9.00 A Few Clouds FEW280 79.9 50.7 36% 80 30.11 0.0
03 13:55 Vrbl 7 9.00 Fair CLR 78.8 51.3 38% 79 30.13 0.0
03 13:35 Calm 9.00 A Few Clouds FEW370 77.7 50.9 39% 79 30.14 0.0
03 13:15 Vrbl 6 9.00 Fair CLR 78.1 51.4 40% 79 30.16 0.0
03 12:55 Vrbl 5 9.00 A Few Clouds FEW350 77.2 51.8 77.9 54.7 41% 78 30.17 0.0
03 12:35 SE 9 9.00 Fair CLR 77 51.8 42% 78 30.17 0.0
03 12:15 SE 8 9.00 Fair CLR 76.6 52.9 44% 78 30.18 0.0
03 11:55 Vrbl 7 9.00 A Few Clouds FEW049 75.6 53.2 46% 78 30.18 0.0
03 11:35 E 7 9.00 Fair CLR 74.5 53.6 48% 30.19 0.0
03 11:15 SE 7 9.00 A Few Clouds FEW045 73.8 53.8 50% 30.2 0.0
03 10:55 SE 7 9.00 A Few Clouds FEW044 72.7 54.3 53% 30.2 0.0
03 10:35 E 10 9.00 Fair CLR 73.2 54.5 52% 30.2 0.0
03 10:15 E 9 7.00 Fair CLR 71.4 55 56% 30.2 0.0
03 09:55 Vrbl 6 8.00 Fair CLR 70.2 55 59% 30.2 0.0
03 09:35 E 3 9.00 Fair CLR 69.8 54.5 58% 30.2 0.0
03 09:15 E 3 8.00 Fair CLR 68.7 54.1 60% 30.19 0.0
03 08:55 Calm 8.00 Fair CLR 66.4 57.6 73% 30.18 0.0
03 08:35 Calm 8.00 Fair CLR 64.6 57.9 79% 30.18 0.0
03 08:15 Calm 8.00 Fair CLR 61.2 58.6 91% 30.18 0.0
03 07:55 Calm 9.00 Fair CLR 57.2 56.7 98% 30.17 0.0
03 07:35 Calm 9.00 Fair CLR 55.2 55.2 100% 30.17 0.0
03 07:15 NW 3 9.00 Fair CLR 54.9 54.7 99% 30.16 0.0
03 06:55 Calm 9.00 Fair CLR 55.4 55.2 60.4 54.7 99% 30.16 0.0
03 06:35 Calm 10.00 Fair CLR 55.4 55.4 100% 30.15 0.0
03 06:15 NW 3 10.00 Fair CLR 55.9 55.4 98% 30.14 0.0
03 05:55 W 5 10.00 Fair CLR 55 55 100% 30.14 0.0
03 05:35 Calm 10.00 Fair CLR 55.6 55.6 100% 30.14 0.0
03 05:15 Calm 10.00 Fair CLR 56.7 56.3 99% 30.14 0.0
03 04:55 Calm 10.00 A Few Clouds FEW100 57 56.5 98% 30.14 0.0
03 04:35 Calm 10.00 Partly Cloudy SCT100 58.5 56.7 94% 30.14 0.0
03 04:15 W 3 10.00 Partly Cloudy SCT100 58.1 57 96% 30.15 0.0
03 03:55 SW 3 10.00 A Few Clouds FEW100 58.6 56.8 94% 30.14 0.0
03 03:35 Calm 10.00 Mostly Cloudy BKN100 59.2 57.6 94% 30.14 0.0
03 03:15 Calm 10.00 Mostly Cloudy BKN100 60.3 57 89% 30.14 0.0
03 02:55 Calm 10.00 Fair CLR 59.5 56.7 90% 30.16 0.0
03 02:35 Calm 10.00 Fair CLR 59.5 56.7 90% 30.16 0.0
03 02:15 SW 3 10.00 Partly Cloudy SCT110 60.1 57 90% 30.17 0.0
03 01:55 SW 3 10.00 Partly Cloudy SCT110 59.7 57 91% 30.17 0.0
03 01:35 SW 3 10.00 Fair CLR 60.1 56.8 89% 30.17 0.0
03 01:15 S 3 10.00 Fair CLR 60.3 56.8 89% 30.17 0.0
03 00:55 S 3 10.00 A Few Clouds FEW110 60.8 57 74.3 60.6 87% 30.17 0.0
03 00:35 S 3 10.00 A Few Clouds FEW100 60.8 57.2 88% 30.16 0.0
03 00:15 Calm 10.00 Fair CLR 61.9 56.8 84% 30.17 0.0
02 23:55 Calm 10.00 Fair CLR 61.3 55.9 83% 30.16 0.0
02 23:35 Calm 10.00 Fair CLR 61.7 55.6 80% 30.16 0.0
02 23:15 Calm 10.00 Fair CLR 61.5 55.4 80% 30.16 0.0
02 22:55 SE 3 10.00 Fair CLR 63 54.7 75% 30.15 0.0
02 22:35 SE 5 10.00 Fair CLR 63.3 54.5 73% 30.15 0.0
02 22:15 SE 5 10.00 Fair CLR 63.7 54.5 72% 30.15 0.0
02 21:55 SE 6 10.00 Fair CLR 64.2 54.3 70% 30.14 0.0
02 21:35 SE 5 10.00 Fair CLR 64.9 53.8 67% 30.13 0.0
02 21:15 SE 6 10.00 Fair CLR 65.5 53.1 64% 30.13 0.0
02 20:55 SE 5 10.00 Fair CLR 67.6 52.2 58% 30.11 0.0
02 20:35 E 5 10.00 Fair CLR 68.5 50.7 53% 30.1 0.0
02 20:15 E 3 10.00 Fair CLR 70.2 49.5 48% 30.1 0.0
02 19:55 E 7 10.00 Fair CLR 72.1 48.4 43% 30.09 0.0
02 19:35 E 8 9.00 Fair CLR 72.9 46.9 40% 30.08 0.0
02 19:15 E 9 10.00 Fair CLR 73.9 47.3 39% 30.08 0.0
02 18:55 NE 9 9.00 Fair CLR 74.1 46.2 75.6 69.6 37% 30.08 0.0
02 18:35 E 9 9.00 Fair CLR 74.1 48.4 40% 30.08 0.0
02 18:15 NE 9 10.00 Fair CLR 74.5 47.1 38% 30.08 0.0
02 17:55 NE 7 9.00 Fair CLR 74.3 47.5 39% 30.07 0.0
02 17:35 E 8 9.00 Fair CLR 75 47.3 38% 77 30.07 0.0
02 17:15 E 9 10.00 Fair CLR 74.7 48.6 40% 30.07 0.0
02 16:55 E 8 10.00 A Few Clouds FEW380 73.8 48.7 41% 30.08 0.0
02 16:35 E 12 10.00 A Few Clouds FEW310 73.8 48.4 41% 30.08 0.0
02 16:15 E 7 9.00 A Few Clouds FEW330 73.8 48.2 40% 30.08 0.0
02 15:55 E 10 8.00 A Few Clouds FEW330 73.2 47.7 40% 30.09 0.0
02 15:35 E 9 8.00 A Few Clouds FEW350 72.9 47.7 41% 30.1 0.0
02 15:15 Vrbl 6 9.00 A Few Clouds FEW290 73.4 47.7 40% 30.1 0.0
02 14:55 NE 10 9.00 A Few Clouds FEW330 72.5 47.8 42% 30.11 0.0
02 14:35 N 12 9.00 Partly Cloudy FEW310 SCT370 73.2 49.1 43% 30.11 0.0
02 14:15 NE 12 9.00 Mostly Cloudy FEW260 SCT310 BKN350 72.7 50 45% 30.12 0.0
02 13:55 NE 10 G 17 9.00 Partly Cloudy FEW210 SCT350 71.2 52.3 51% 30.12 0.0
02 13:35 NE 15 9.00 Partly Cloudy FEW210 SCT350 SCT370 71.1 54 55% 30.12 0.0
02 13:15 N 12 9.00 A Few Clouds FEW300 70.2 54.9 58% 30.13 0.0
02 12:55 N 8 G 17 9.00 Fair CLR 69.3 55.9 69.4 54.9 63% 30.14 0.0
02 12:35 N 12 9.00 Fair CLR 67.8 55.8 65% 30.15 0.0
02 12:15 N 10 G 17 9.00 A Few Clouds FEW028 66.7 56.1 69% 30.15 0.0
02 11:55 N 13 G 20 9.00 A Few Clouds FEW350 66.7 56.3 69% 30.15 0.0
02 11:35 NE 9 9.00 Fair CLR 64.6 55.6 73% 30.16 0.0
02 11:15 N 15 G 18 9.00 Fair CLR 63.7 55.4 75% 30.15 0.0
02 10:55 N 12 9.00 Fair CLR 62.4 55.2 77% 30.14 0.0
02 10:35 NE 10 9.00 Partly Cloudy SCT016 61.5 55.2 80% 30.14 0.0
Date Time (cdt) Wind (mph) Vis. (mi.) Weather Sky Cond. Air Dwpt Max. Min. Relative Humidity Wind Chill (°F) Heat Index (°F) altimeter (in) sea level (mb) 1 hr 3 hr 6 hr
6 hour
Temperature (ºF) Pressure Precipitation (in)